Showing default

ORBCOMM FM 16, 25417

Orbit data source: Space-Track

ORBCOMM FM 16, 25417 is a payload satellite owned by Orbcomm (US) in LEO that was launched on Sun, 02 Aug 1998 UTC via a PEGASUS XL/HAPS launch vehicle from the Pegasus Launch, Eastern Range Air Space (ERAS). Payload-class satellites include a variety of spacecraft equipped with specific instruments for various scientific and technological missions. These include communications satellites like Starlink; space stations such as the ISS; scientific satellites like the Hubble; Earth observation satellites from companies like Planet Labs, Umbra, and HawkEye 360; GPS; miniature CubeSats for education and research; and military/defense satellites.

Loading next visibility...
Identifier
25417, 1998-046E
Orbit
LEO
Country
Flag of USUS / ORB
Related business
Manufacturer
OSC-Germantown
Mission
Non-operational Commercial Communications
Bus & Motor
MICROSTAR, Unknown motor
Mass
42 kg wet, 42 kg dry
Launch date (UTC)
1998-08-02 (28 years ago)
Launch vehicle
PEGASUS XL/HAPS
Launch site
Pegasus Launch, Eastern Range Air Space (ERAS)
Object type
Payload
Rocket body
Debris
Shape & HBR
Cyl + 2 Pan, 4.2 m
Radar Cross Section
1.484 m², Medium (>0.1 m² and < 1m²)

Expand to show TLE details & history
Last TLE update: 2 days ago

TLE from 2 days ago
0 ORBCOMM FM 16
1 25417U 98046E   26171.42272345  .00000520  00000-0  20833-3 0  9998
2 25417  44.9922 222.4279 0004690 318.7883  41.2612 14.40068611457313
Epoch: 2026-06-20T10:08Z
TLE epoch observation values (Epoch: 2026-06-20T10:08:43.306Z)
Latitude
0.00004°
Longitude
161.60993°
Altitude
755.755 km
Speed
7.479 km/s
True Right ascension
14h 49m 42s
True Declination
0° 00' 00"
Sunlit
Object was in full shadow at epoch
Visualization orbit readout
Latitude
Unknown
Longitude
Unknown
Altitude
Unknown
Speed
Unknown
Apparent Right ascension
Unknown
Apparent Declination
Unknown
Sunlit
N/A
Visualization observer readout
Local Sidereal Time
23:20:31
Azimuth
Unknown
Elevation
Unknown
Doppler factor
Unknown
Orbital elements
Apogee altitude
763.168 km
Perigee altitude
756.473 km
Semi-major axis
7,137.958 km
Eccentricity
0.00047
Inclination
44.9922°
RAAN
222.4279°
Arg. of periapsis
318.7883°
True anomaly
41.29666°
Mean anomaly
41.2612°
Eccentric anomaly
41.27893°
Mean motion
3.599 °/min
Orbital period
100.03 mins
BSTAR
0.00020833
Loading maneuver chart data...
Computing Atmospheric mass density...

Documentation

Showing up to 5 results
|